Location: Étavigny
(49.1201°N, 2.9800°E)
Time: 14:55:41
(UTC+00:00)

FENGYUN 1C DEB - Visible Passes

Search period start: 23 February 2024 00:00
Search period end: 04 March 2024 00:00
Orbit: 776 x 869 km, 98.9° (Epoch: 23 February)

Date Brightness Start Highest point End Pass type
(mag) Time Alt. Az. Time Alt. Az. Time Alt. Az.
23 Feb ? 21:47:47 10° N 21:47:47 10° N 21:47:47 10° N visible
26 Feb ? 22:27:57 11° N 22:27:57 11° N 22:28:04 10° N visible
27 Feb ? 22:07:31 12° N 22:07:31 12° N 22:07:50 10° N visible
28 Feb ? 21:47:04 12° N 21:47:04 12° N 21:47:29 10° N visible
29 Feb ? 21:26:37 12° N 21:26:37 12° N 21:27:01 10° N visible
01 Mar ? 21:06:09 11° NNE 21:06:09 11° NNE 21:06:21 10° NNE visible
01 Mar ? 22:47:33 12° NNW 22:47:33 12° NNW 22:47:50 10° NNW visible
02 Mar ? 22:27:05 13° N 22:27:05 13° N 22:27:38 10° N visible
03 Mar ? 22:06:36 14° N 22:06:36 14° N 22:07:20 10° N visible
